Regional Weather Roundup
Issued by NWS

Home | Current Version | Previous Version | Text Only | Print | Product List | Glossary Off
Versions: 1 2 3 4 5 6 7 8 9 10 11 12 13 14 15 16 17 18 19 20 21 22 23 24 25 26 27

000
ASUS45 KTFX 221710
RWRMT
MONTANA REGIONAL WEATHER ROUNDUP
NATIONAL WEATHER SERVICE GREAT FALLS MT
1000 AM MST WED NOV 22 2017

NOTE: "FAIR" INDICATES FEW OR NO CLOUDS BELOW 12000 FEET WITH NO
SIGNIFICANT WEATHER AND/OR OBSTRUCTIONS TO VISIBILITY.

MTZ001>007-043-221800-
WEST OF THE DIVIDE

CITY           SKY/WX    TMP DP  RH WIND       PRES   REMARKS
KALISPELL      CLOUDY    42  42 100 CALM      30.14R
MISSOULA       CLOUDY    40  39  97 CALM      30.21S FOG
BUTTE          FAIR      49  36  61 VRB3      30.27R
MULLAN PASS    LGT RAIN  42  41  96 VRB7      30.19S VSB<1/4
ANACONDA         N/A     52  39  62 S12       30.24S
DEER LODGE       N/A     48  39  71 SW3       30.24R
EUREKA           N/A     46  45  93 MISG      30.10R
HAMILTON         N/A     52  46  82 S14       30.23S
LIBBY            N/A     37  37 100 CALM      30.13R
PLAINS           N/A     43  41  93 CALM      30.16R
RONAN            N/A     52  46  79 CALM      30.19R
$$

MTZ008-052>055-221800-
SOUTHWEST MONTANA

CITY           SKY/WX    TMP DP  RH WIND       PRES   REMARKS
BOZEMAN        CLOUDY    46  36  68 CALM      30.22R
DILLON         PTSUNNY   50  37  61 SW13      30.29R
W YELLOWSTONE  CLOUDY    37  37 100 SW14G21   30.37S WCI  29
ENNIS          CLOUDY    50  37  62 S15       30.33R
TWIN BRIDGES     N/A     49  34  56 CALM      30.23R
$$

MTZ009-010-012-014-046-048-049-054-221800-
EAST SLOPES AND CENTRAL MONTANA

CITY           SKY/WX    TMP DP  RH WIND       PRES   REMARKS
CUT BANK       FAIR      54  43  66 W38G47    29.93F
GREAT FALLS    FAIR      56  40  55 SW25G37   30.03R
MALMSTROM AFB  PTSUNNY   56  41  57 SW29      30.01S
HELENA         FAIR      45  38  76 W6        30.16R
BOWMANS CRNR   FAIR      51  40  65 SW18      30.04R
CHOTEAU          N/A     59  39  47 W12G29    29.99R
FAIRFIELD      PTSUNNY   60  38  44 SW28G33   30.01S
POWER          PTSUNNY   56  39  52 S26G35    30.00R
RAYNESFORD     PTSUNNY   59  39  48 SW30G43   30.04R
ULM            PTSUNNY   57  41  55 SW25G35   30.04F
$$

MTZ011-013-016-021-045-047-050-051-221800-
NORTH CENTRAL MONTANA

CITY           SKY/WX    TMP DP  RH WIND       PRES   REMARKS
HAVRE          FAIR      54  41  61 SW23      29.91S
LEWISTOWN      CLOUDY    56  40  55 SW18      30.05R
N BAR RANCH    FAIR      57  37  47 W16G22    30.05R
CHINOOK          N/A     57  41  54 W15       29.90R
DENTON         FAIR      58  41  54 W23G35    29.96R
GEYSER         PTSUNNY   57  40  54 W26G36    29.99R
GRASS RANGE    FAIR      59  39  48 W28G35    29.98R
STANFORD       FAIR      57  38  48 W25G35    30.02R
WINIFRED       PTSUNNY   55  41  59 W16       30.00R
$$

MTZ017>020-022>027-061-062-221800-
NORTHEAST MONTANA

CITY           SKY/WX    TMP DP  RH WIND       PRES   REMARKS
GLASGOW        FAIR      36  26  67 NW7       29.88R WCI  30
GLENDIVE       FAIR      49  37  63 SW13      29.90R
JORDAN           N/A     55  39  54 W10       29.91R
SIDNEY         FAIR      40  30  67 S6        29.87R
WOLF POINT     FAIR      30  19  63 CALM      29.88R
MALTA          SUNNY     57  41  54 NW25G32   29.86R
PLENTYWOOD       N/A     36  28  75 CALM      29.82R
POPLAR           N/A     30  21  69 CALM      29.89R
SCOBEY           N/A     41  27  57 SW9       29.84R
$$

MTZ028>42-056>058-221800-
SOUTHCENTRAL AND SOUTHEAST MONTANA

CITY           SKY/WX    TMP DP  RH WIND       PRES   REMARKS
BAKER          FAIR      53  38  56 W22       29.96R
BILLINGS       LGT RAIN  51  36  56 SW20      30.10R
LIVINGSTON     PTSUNNY   56  40  55 W15       30.19R
MILES CITY     PTSUNNY   46  38  73 SW9       29.96R
BIG TIMBER     SUNNY     57  37  47 W33       30.15R
EKALAKA          N/A     52  35  52 SW10      29.98R
FORSYTH          N/A     57  39  51 SW12      29.99S
HARLOWTON      PTSUNNY   52  39  60 W29G36    30.09S
LAUREL           N/A     48  36  61 SW14      30.12S
ROUNDUP          N/A     55  40  57 S13       29.96R
$$

REGIONAL REPORTS...DAKOTAS

CITY           SKY/WX    TMP DP  RH WIND       PRES   REMARKS
WILLISTON      FAIR      36  26  67 S6        29.84S WCI  31
MINOT          CLOUDY    32  20  61 CALM      29.81S
DICKINSON      FAIR      52  34  50 W16       29.84S
BEACH          FAIR      52  36  54 W25       29.92S
CROSBY         FAIR      37  27  65 W14G22    29.81R WCI  29
TIOGA          FAIR      36  30  80 W15       29.81S WCI  26
WATFORD CITY   FAIR      46  34  61 SW9       29.84R
BISMARCK       CLOUDY    35  21  56 S5        29.90F
GRAND FORKS    FLURRIES  21  14  74 S15       30.03F WCI   8
FARGO          CLOUDY    24  13  62 S16G22    30.07F WCI  11
BUFFALO SD       N/A     60  36  40 W25G33    29.91R
RAPID CITY     FAIR      59  32  36 S3        30.03R
$$

REGIONAL REPORTS...WYOMING/IDAHO/WASHINGTON

CITY           SKY/WX    TMP DP  RH WIND       PRES   REMARKS
GILLETTE       FAIR      63  35  35 SW13      30.09S
SHERIDAN       CLOUDY    63  43  48 W12       30.11R
BUFFALO WY     FAIR      61  31  32 CALM      30.15R
CODY           FAIR      56  38  50 W14G21    30.22S
YELLOWSTONE LA   N/A     39  37  92 W8G20     30.40R
IDAHO FALLS    CLOUDY    42  40  92 N6        30.41R
SALMON         LGT RAIN  39  37  92 CALM      30.37R FOG
BOISE          FAIR      53  50  89 CALM      30.31R
SPOKANE        CLOUDY    46  45  96 CALM      30.13R
$$

REGIONAL REPORTS...ALBERTA

CITY           SKY/WX    TMP DP  RH WIND       PRES   REMARKS
EDMONTON       PTSUNNY   18  10  73 S3        29.87S
CALGARY        MOSUNNY   23  14  68 S13       29.87R WCI  11
LETHBRIDGE     PTSUNNY   52  39  62 SW37G44   29.87F
MEDICINE HAT   MOSUNNY   23  18  80 W3        29.94R
$$

REGIONAL REPORTS...SASKATCHEWAN

CITY           SKY/WX    TMP DP  RH WIND       PRES   REMARKS
SWIFT CURRENT  PTSUNNY   23  19  86 W14       29.86R WCI  11
REGINA         PTSUNNY   19  14  79 NW5       29.87R
SASKATOON      CLOUDY    10   5  79 W7        29.95R WCI   0
$$




USA.gov is the U.S. government's official web portal to all federal, state and local government web resources and services.